Starlink 11611

operational
NORAD ID: 63138 Int'l Des: 2025-043 Owner: SPXS Country: US Constellation: starlink
LEOCIRCULAR

Starlink 11611について

説明を読み込み中...

リアルタイム位置

3D地球を読み込み中...

次回通過

高度履歴

Altitude vs Time

uPlot chart will show altitude changes over time

軌道要素

1 63138U 25043G 25258.20159993 .00423166 00000-0 31053-2 0 9991
2 63138 42.9985 228.3895 0001796 237.3713 122.6982 15.71077519 31878
Epoch: Sep 15, 2025 • Age: 21 hours

現在のステータス

高度 365.1 km
速度 7.69 km/s
衛星直下点 -40.33°S, 134.56°E
打ち上げ日 Mar 3, 2025
運用期間 0.5 years
タイプ internet

技術仕様

分類 Payload
質量 960.00 kg
乾燥質量 910.00 kg
総質量 960.00 kg
長さ 0.30 m
直径 4.10 m
スパン 29.00 m
形状 Box + pan
製造者 SPXS
バスタイプ Starlink V2MD
フェーズステータス In Orbit
所有者/国 SPXS/US

大規模コンステレーション

Loading constellations...